Weather History for Wolf Point, MT

Change the Weather History Date:

Sunday, March 3, 2013

  Actual Average Record
Temperature  
Mean Temperature 33 °F -  
Max Temperature 38 °F 37 °F 59 °F (2005)
Min Temperature 27 °F 12 °F -15 °F (2002)
Degree Days  
Heating Degree Days 32    
Cooling Degree Days 0    
Moisture  
Dew Point 30 °F    
Average Humidity 90    
Maximum Humidity 93    
Minimum Humidity 82    
Precipitation  
Precipitation 0.18 in 0.01 in 0.18 in (2013)
Month to date precipitation 0.18 0.03  
Year to date precipitation 0.38 0.55  
Sea Level Pressure  
Sea Level Pressure 29.67 in    
Wind  
Wind Speed 6 mph (NNE)    
Max Wind Speed 21 mph    
Max Gust Speed 29 mph    
Visibility 3 miles    
Events Rain , Snow    
T = Trace of Precipitation, MM = Missing Value Source: NWS Daily Summary

Daily Weather History Graph

Daily Weather History Graph

Search for Another Location

Airport:

Trip Planner

Search our weather history database for the weather conditions in past years. The results will help you decide how hot, cold, wet, or windy it might be!

Date:

Astronomy

Mar. 03, 2013 Rise Set
Actual Time 6:38 AM MST 5:50 PM MST
Civil Twilight 6:07 AM MST 6:21 PM MST
Nautical Twilight 5:31 AM MST 6:57 PM MST
Astronomical Twilight 4:55 AM MST 7:33 PM MST
Moon 12:00 AM MST (3/3) 9:25 AM MST (3/3)
Length of Visible Light 12h 13m
Length of Day
11h 11m
Waning Gibbous, 63% of the Moon is Illuminated
Mar 3
Waning Gibbous
Mar 4
Last Quarter
Mar 11
New
Mar 19
First Quarter
Mar 27
Full

Hourly Weather History & Observations

Time (MST) Temp. Windchill Dew Point Humidity Pressure Visibility Wind Dir Wind Speed Gust Speed Precip Events Conditions
12:53 AM 30.0 °F 24.1 °F 28.0 °F 92% 29.84 in 5.0 mi ENE 5.8 mph - N/A   Clear
1:53 AM 28.9 °F 25.2 °F 27.0 °F 92% 29.82 in 4.0 mi East 3.5 mph - N/A   Clear
2:53 AM 28.9 °F 25.2 °F 26.1 °F 89% 29.78 in 4.0 mi ENE 3.5 mph - N/A   Clear
3:53 AM 28.0 °F 24.2 °F 26.1 °F 92% 29.77 in 3.0 mi ENE 3.5 mph - N/A   Clear
4:53 AM 28.9 °F 25.2 °F 27.0 °F 92% 29.75 in 3.0 mi ENE 3.5 mph - N/A   Clear
5:37 AM 28.4 °F 24.6 °F 26.6 °F 93% 29.69 in 2.5 mi East 3.5 mph - N/A   Clear
5:53 AM 28.0 °F 24.2 °F 26.1 °F 92% 29.75 in 2.5 mi ENE 3.5 mph - N/A   Clear
6:53 AM 30.0 °F - 28.0 °F 92% 29.74 in 1.8 mi Calm Calm - N/A   Overcast
7:53 AM 30.0 °F 26.5 °F 28.0 °F 92% 29.73 in 1.5 mi NE 3.5 mph - N/A   Overcast
8:33 AM 30.2 °F 26.7 °F 28.4 °F 93% 29.67 in 1.8 mi South 3.5 mph - N/A   Overcast
8:40 AM 30.2 °F - 28.4 °F 93% 29.67 in 2.0 mi Calm Calm - N/A   Overcast
8:49 AM 30.2 °F - 28.4 °F 93% 29.66 in 2.0 mi Calm Calm - N/A   Overcast
8:53 AM 30.9 °F - 28.9 °F 92% 29.73 in 2.0 mi Calm Calm - N/A   Overcast
9:53 AM 33.1 °F 27.7 °F 30.0 °F 89% 29.69 in 2.0 mi NE 5.8 mph - N/A   Overcast
10:53 AM 35.1 °F 31.0 °F 30.9 °F 85% 29.68 in 2.5 mi ENE 4.6 mph - N/A   Overcast
11:17 AM 35.6 °F 30.7 °F 32.0 °F 87% 29.60 in 3.0 mi ESE 5.8 mph - N/A   Overcast
11:26 AM 35.6 °F 29.9 °F 32.0 °F 87% 29.60 in 2.5 mi ESE 6.9 mph - N/A   Overcast
11:40 AM 35.6 °F 32.8 °F 32.0 °F 87% 29.61 in 3.0 mi SE 3.5 mph - N/A   Overcast
11:53 AM 35.1 °F 32.2 °F 32.0 °F 89% 29.67 in 2.5 mi ESE 3.5 mph - N/A   Overcast
12:21 PM 35.6 °F - 32.0 °F 87% 29.60 in 3.0 mi Calm Calm - N/A   Overcast
12:53 PM 37.0 °F 31.0 °F 32.0 °F 82% 29.63 in 3.0 mi ESE 8.1 mph - N/A   Haze
1:53 PM 37.0 °F 29.8 °F 33.1 °F 86% 29.61 in 4.0 mi ESE 10.4 mph - N/A   Overcast
2:53 PM 36.0 °F 29.6 °F 32.0 °F 86% 29.63 in 3.0 mi East 8.1 mph - N/A   Overcast
3:21 PM 35.6 °F 32.8 °F 32.0 °F 87% 29.60 in 2.5 mi West 3.5 mph - 0.00 in Rain Light Rain
3:53 PM 35.1 °F - 32.0 °F 89% 29.67 in 1.8 mi Calm Calm - 0.00 in Rain Light Rain
4:05 PM 35.6 °F - 32.0 °F 87% 29.61 in 2.0 mi Calm Calm - 0.00 in Rain Light Rain
4:13 PM 35.6 °F - 33.8 °F 93% 29.61 in 2.0 mi Calm Calm - 0.01 in Rain Light Rain
4:21 PM 35.6 °F 29.9 °F 33.8 °F 93% 29.61 in 1.5 mi Variable 6.9 mph - 0.01 in Rain Light Rain
4:32 PM 37.4 °F 26.9 °F 33.8 °F 87% 29.61 in 2.5 mi WNW 20.7 mph 25.3 mph 0.02 in Rain Light Rain
4:43 PM 37.4 °F 28.9 °F 33.8 °F 87% 29.61 in 4.0 mi WNW 13.8 mph 28.8 mph 0.03 in Rain Light Rain
4:53 PM 37.9 °F 30.5 °F 34.0 °F 86% 29.67 in 6.0 mi WNW 11.5 mph - 0.04 in Rain Light Rain
5:20 PM 35.6 °F 27.1 °F 33.8 °F 93% 29.62 in 10.0 mi West 12.7 mph - 0.00 in Rain Light Rain
5:53 PM 36.0 °F 30.3 °F 33.1 °F 89% 29.68 in 10.0 mi West 6.9 mph - 0.00 in   Overcast
6:29 PM 35.6 °F 27.1 °F 32.0 °F 87% 29.63 in 8.0 mi West 12.7 mph - 0.02 in Snow Light Snow
6:53 PM 35.1 °F 25.5 °F 32.0 °F 89% 29.69 in 8.0 mi WNW 15.0 mph - 0.04 in Snow Light Snow
7:53 PM 34.0 °F 25.5 °F 32.0 °F 92% 29.70 in 8.0 mi West 11.5 mph - 0.02 in Snow Light Snow
8:53 PM 35.1 °F 27.4 °F 32.0 °F 89% 29.70 in 8.0 mi West 10.4 mph - 0.04 in Snow Light Snow
9:47 PM 33.8 °F 25.8 °F 32.0 °F 93% 29.64 in 4.0 mi NNW 10.4 mph - 0.02 in Snow Light Snow
9:48 PM 34.0 °F 26.0 °F 32.0 °F 92% 29.71 in 4.0 mi NNW 10.4 mph - 0.02 in Snow Light Snow
9:57 PM 33.8 °F 26.4 °F 30.2 °F 87% 29.65 in 2.0 mi North 9.2 mph - 0.00 in Snow Light Snow
10:03 PM 33.8 °F 26.4 °F 30.2 °F 87% 29.65 in 1.5 mi North 9.2 mph - 0.00 in Snow Light Snow
10:12 PM 32.0 °F 23.0 °F 30.2 °F 93% 29.65 in 0.8 mi North 11.5 mph - 0.00 in Snow Light Snow
10:20 PM 32.0 °F 22.5 °F 28.4 °F 87% 29.65 in 0.8 mi NNE 12.7 mph - 0.01 in Snow Light Snow
10:28 PM 30.2 °F 21.3 °F 28.4 °F 93% 29.65 in 1.0 mi North 10.4 mph - 0.01 in Snow Light Snow
10:48 PM 30.2 °F 21.3 °F 28.4 °F 93% 29.66 in 1.0 mi North 10.4 mph - 0.01 in Snow Light Snow
10:53 PM 30.0 °F 21.7 °F 27.0 °F 88% 29.73 in 0.8 mi North 9.2 mph - 0.01 in Snow Light Snow
11:20 PM 28.4 °F 19.1 °F 26.6 °F 93% 29.67 in 0.8 mi NNE 10.4 mph - 0.01 in Snow Light Snow
11:45 PM 26.6 °F 16.8 °F 24.8 °F 93% 29.67 in 0.8 mi NNE 10.4 mph - 0.01 in Snow Light Snow
11:53 PM 27.0 °F 16.7 °F 24.1 °F 89% 29.75 in 1.0 mi NNE 11.5 mph - 0.01 in Snow Light Snow